Hourly Data Report for January 26, 2013

BAGOTVILLE A
QUEBEC

48°20'00.000" N
71°00'00.000" W
159.10 m
7060400
71727
YBG

Download Data

Hourly Data (January 2013)
Hourly Data Report for January 26, 2013
TIME
LST
Temp Definition
°C
Dew Point Definition
°C
Rel Hum Definition
%
Precip. Amount Definition
mm

Wind Dir Definition
10's deg

Wind Spd Definition
km/h
Visibility Definition
km
Stn Press Definition
kPa
Hmdx Definition


Wind Chill Definition


Weather Definition


00:00 -17.6 -23.2 62   27 15 24.1 99.88   -26 Snow Showers
01:00 -17.6 -23.2 62   28 17 24.1 99.85   -27 Snow Showers
02:00 -17.6 -22.4 66   29 19 24.1 99.85   -27 Snow Showers
03:00 -17.7 -22.5 66   29 17 24.1 99.83   -27 Snow Showers
04:00 -17.8 -21.9 70   28 15 24.1 99.82   -26 Snow Showers
05:00 -17.8 -21.9 70   28 19 24.1 99.82   -27 Snow
06:00 -17.8 -21.2 75   29 19 24.1 99.85   -27 Snow
07:00 -17.8 -21.9 70   28 15 40.2 99.86   -26 Snow
08:00 -17.6 -21.6 71   29 19 40.2 99.90   -27 Snow
09:00 -17.6 -21.6 71   30 17 32.2 99.93   -27 Snow
10:00 -17.3 -21.3 71   30 20 40.2 99.95   -27 Snow
11:00 -16.4 -20.8 69   30 17 40.2 99.94   -25 Mostly Cloudy
12:00 -16.0 -21.0 65   28 22 40.2 99.85   -26 Mostly Cloudy
13:00 -15.5 -21.0 63   29 26 40.2 99.82   -26 Mostly Cloudy
14:00 -15.6 -21.9 58   28 28 40.2 99.80   -26 Mostly Cloudy
15:00 -15.3 -22.2 56   29 24 40.2 99.84   -25 Mostly Cloudy
16:00 -15.2 -19.9 67   30 20 40.2 99.86   -24 Mostly Cloudy
17:00 -16.4 -20.1 73   28 15 40.2 99.93   -25 Mostly Cloudy
18:00 -17.0 -22.4 63   28 22 40.2 99.97   -27 Mostly Cloudy
19:00 -16.6 -21.8 64   29 24 40.2 100.04   -27 Mostly Cloudy
20:00 -17.0 -21.6 67   30 20 40.2 100.10   -27 Mostly Cloudy
21:00 -16.9 -20.8 72   29 26 40.2 100.14   -28 Mostly Cloudy
22:00 -17.0 -21.6 67   30 28 24.1 100.20   -28 Snow Showers
23:00 -17.3 -22.0 67   29 30 16.1 100.25   -29 Snow

Notes on Data Quality.

Legend

  • E = Estimated
  • M = Missing
  • NA = Not Available*
  • [empty] = Indicates an unobserved value
Date modified: